User: anonymous
Location: Caltech
(34.1382°N, 118.1253°W)
Time: 02:48:49
(UTC-07:00)
Language:

DELTA 2 R/B (1) - Orbit

View from above orbital plane
View from above orbital plane
View from above satellite
View from above satellite

Ground track
Ground track

The orbit data is extracted from the following two-line orbital elements,

1 27665U 03005C   14272.10350519  .00000268  00000-0  14032-3 0  1300
2 27665 039.5749 121.1805 0009706 293.2344 215.1730 14.28221007609047
Epoch (UTC): 29 September 2014 02:29:02
Eccentricity: 0.0009706
inclination: 39.5749°
perigee height: 791 km
apogee height: 804 km
right ascension of ascending node: 121.1805°
argument of perigee: 293.2344°
revolutions per day: 14.28221007
mean anomaly at epoch: 215.1730°
orbit number at epoch: 60904

The dashed part of the orbit path shows where the satellite is in the earth's shadow,  

DLR